Location: Morris County Observatory
(40.8287°N, 74.5644°W)
Time: 12:13:41
(UTC-05:00)

ISS - Visible Passes

Search period start: 02 December 2020 00:00
Search period end: 12 December 2020 00:00
Orbit: 418 x 420 km, 51.6° (Epoch: 02 December)

Date Brightness Start Highest point End Pass type
(mag) Time Alt. Az. Time Alt. Az. Time Alt. Az.
02 Dec -1.4 18:31:14 10° NW 18:32:13 16° NNW 18:32:13 16° NNW visible
03 Dec -2.1 17:43:48 10° NNW 17:46:19 19° NNE 17:46:43 19° NNE visible
04 Dec -2.0 18:32:37 10° NW 18:34:18 26° NNW 18:34:18 26° NNW visible
05 Dec -3.0 17:45:08 10° NW 17:48:15 34° NNE 17:49:03 29° ENE visible
05 Dec -0.2 19:22:00 10° WNW 19:22:02 10° WNW 19:22:02 10° WNW visible
06 Dec -2.5 16:57:40 10° NW 17:00:31 24° NNE 17:03:20 10° E visible
06 Dec -2.8 18:34:12 10° WNW 18:36:59 48° WSW 18:36:59 48° WSW visible
07 Dec -3.9 17:46:34 10° NW 17:49:56 85° NE 17:52:13 19° SE visible
08 Dec -3.5 16:58:59 10° NW 17:02:17 51° NNE 17:05:34 10° ESE visible
08 Dec -1.0 18:36:24 10° W 18:38:49 18° SW 18:40:54 12° S visible
09 Dec -1.8 17:48:19 10° WNW 17:51:20 31° SW 17:54:21 10° SSE visible
10 Dec -2.9 17:00:30 10° WNW 17:03:47 55° SW 17:07:05 10° SE visible
11 Dec -0.1 17:51:37 10° WSW 17:52:30 11° SW 17:53:22 10° SW visible
